Alpena, MI

4:02 PM EDT on August 23, 2017 (GMT -0400)
Alpena County Regional

Weather History for KAPN - September, 2014

Change the Weather History Date:

Friday, September 5, 2014

  Actual Average Record
Temperature  
Mean Temperature 69 °F 61 °F  
Max Temperature 78 °F 73 °F 90 °F (1922)
Min Temperature 59 °F 50 °F 31 °F (1963)
Degree Days  
Heating Degree Days 0 5  
Month to date heating degree days 0 22  
Since 1 July heating degree days 124 137  
Cooling Degree Days 4 1  
Month to date cooling degree days 17 7  
Year to date cooling degree days 167 273  
Growing Degree Days 19 (Base 50)    
Moisture  
Dew Point 64 °F    
Average Humidity 86    
Maximum Humidity 93    
Minimum Humidity 78    
Precipitation  
Precipitation 0.58 in 0.10 in 1.17 in (2008)
Month to date precipitation 1.95 0.50  
Year to date precipitation 23.85 19.28  
Sea Level Pressure  
Sea Level Pressure 29.89 in    
Wind  
Wind Speed 8 mph (West)    
Max Wind Speed 22 mph    
Max Gust Speed 28 mph    
Visibility 9 miles    
Events Rain , Thunderstorm    
T = Trace of Precipitation, MM = Missing Value Source: NWS Daily Summary

Daily Weather History Graph

Daily Weather History Graph

Search for Another Location

Airport or City:

Trip Planner

Search our weather history database for the weather conditions in past years. The results will help you decide how hot, cold, wet, or windy it might be!

Date:

Astronomy

Sep. 05, 2014 Rise Set
Actual Time 7:00 AM EDT 8:04 PM EDT
Civil Twilight 6:30 AM EDT 8:34 PM EDT
Nautical Twilight 5:54 AM EDT 9:09 PM EDT
Astronomical Twilight 5:16 AM EDT 9:47 PM EDT
Moon 5:38 PM EDT (9/5) 2:46 AM EDT (9/5)
Length of Visible Light 14h 03m
Length of Day
13h 03m
Waxing Gibbous, 83% of the Moon is Illuminated
Sep 5
Waxing Gibbous
Sep 8
Full
Sep 15
Last Quarter
Sep 24
New
Oct 1
First Quarter

Hourly Weather History & Observations

Time (EDT) Temp. Dew Point Humidity Pressure Visibility Wind Dir Wind Speed Gust Speed Precip Events Conditions
12:54 AM 71.1 °F 66.0 °F 84% 29.79 in 10.0 mi SW 8.1 mph - 0.00 in   Clear
1:54 AM 71.1 °F 66.0 °F 84% 29.85 in 10.0 mi Variable 3.5 mph - N/A   Scattered Clouds
2:13 AM 72.0 °F 66.0 °F 81% 29.87 in 10.0 mi WNW 3.5 mph - N/A   Mostly Cloudy
2:42 AM 71.1 °F 64.9 °F 81% 29.88 in 10.0 mi WNW 4.6 mph - N/A   Partly Cloudy
2:54 AM 70.0 °F 64.9 °F 84% 29.88 in 10.0 mi West 4.6 mph - N/A   Partly Cloudy
3:54 AM 66.9 °F 64.9 °F 93% 29.89 in 10.0 mi Calm Calm - N/A   Clear
4:54 AM 68.0 °F 64.9 °F 90% 29.93 in 10.0 mi Calm Calm - N/A   Mostly Cloudy
5:23 AM 66.9 °F 64.9 °F 93% 29.92 in 9.0 mi SSE 3.5 mph - 0.00 in Rain , Thunderstorm Light Thunderstorms and Rain
5:54 AM 66.9 °F 66.0 °F 97% 29.94 in 10.0 mi South 9.2 mph - 0.02 in Rain , Thunderstorm Light Thunderstorms and Rain
6:17 AM 68.0 °F 66.0 °F 93% 29.97 in 4.0 mi SSW 9.2 mph - 0.04 in Rain Rain
6:43 AM 68.0 °F 66.0 °F 93% 29.94 in 4.0 mi SSW 4.6 mph - 0.13 in Rain Rain
6:54 AM 66.9 °F 66.0 °F 97% 29.91 in 5.0 mi South 6.9 mph - 0.16 in Rain Rain
7:54 AM 70.0 °F 63.0 °F 78% 29.87 in 5.0 mi WNW 3.5 mph - 0.17 in Rain Rain
8:11 AM 72.0 °F 62.1 °F 71% 29.86 in 9.0 mi NW 5.8 mph - 0.03 in Rain , Thunderstorm Light Rain
8:20 AM 73.0 °F 62.1 °F 68% 29.85 in 10.0 mi WNW 4.6 mph - 0.04 in Rain Light Rain
8:54 AM 66.9 °F 64.9 °F 93% 29.81 in 10.0 mi South 15.0 mph - 0.07 in Rain Light Rain
9:54 AM 69.1 °F 66.0 °F 90% 29.84 in 10.0 mi SSW 9.2 mph - 0.03 in   Partly Cloudy
10:28 AM 69.1 °F 68.0 °F 96% 29.88 in 4.0 mi SSW 9.2 mph - 0.02 in Rain , Thunderstorm Rain
10:54 AM 70.0 °F 68.0 °F 93% 29.86 in 9.0 mi South 17.3 mph 24.2 mph 0.08 in Rain , Thunderstorm Light Rain
11:41 AM 70.0 °F 66.9 °F 90% 29.88 in 10.0 mi WSW 8.1 mph - 0.02 in Rain Light Rain
11:54 AM 70.0 °F 66.9 °F 90% 29.86 in 8.0 mi WSW 4.6 mph - 0.02 in Rain Light Rain
12:54 PM 71.1 °F 68.0 °F 90% 29.83 in 10.0 mi West 5.8 mph - 0.03 in   Clear
1:54 PM 73.0 °F 69.1 °F 87% 29.84 in 10.0 mi WSW 8.1 mph - N/A   Clear
2:16 PM 73.9 °F 69.1 °F 85% 29.86 in 10.0 mi WSW 10.4 mph - N/A   Mostly Cloudy
2:54 PM 75.9 °F 70.0 °F 82% 29.86 in 10.0 mi WSW 11.5 mph 21.9 mph N/A   Mostly Cloudy
3:32 PM 77.0 °F 69.1 °F 76% 29.86 in 10.0 mi West 10.4 mph 17.3 mph N/A   Mostly Cloudy
3:54 PM 71.1 °F 66.0 °F 84% 29.86 in 10.0 mi North 18.4 mph - N/A   Overcast
4:06 PM 66.9 °F 63.0 °F 87% 29.87 in 10.0 mi North 17.3 mph - N/A   Overcast
4:21 PM 66.0 °F 61.0 °F 84% 29.89 in 10.0 mi NNW 12.7 mph - N/A   Overcast
4:32 PM 66.9 °F 61.0 °F 81% 29.89 in 10.0 mi North 10.4 mph - N/A   Overcast
4:54 PM 66.9 °F 60.1 °F 79% 29.88 in 10.0 mi NNW 12.7 mph - N/A   Scattered Clouds
5:40 PM 66.9 °F 61.0 °F 81% 29.88 in 10.0 mi NNW 12.7 mph - N/A   Mostly Cloudy
5:54 PM 66.9 °F 60.1 °F 79% 29.88 in 10.0 mi NNW 15.0 mph 20.7 mph N/A   Overcast
6:54 PM 66.0 °F 60.1 °F 81% 29.91 in 10.0 mi NW 4.6 mph - N/A   Mostly Cloudy
7:54 PM 64.9 °F 60.1 °F 84% 29.93 in 10.0 mi NW 5.8 mph - N/A   Mostly Cloudy
8:54 PM 63.0 °F 57.0 °F 81% 29.94 in 10.0 mi NNW 9.2 mph - N/A   Scattered Clouds
9:54 PM 61.0 °F 55.9 °F 83% 29.95 in 10.0 mi NW 10.4 mph - N/A   Partly Cloudy
10:54 PM 60.1 °F 55.9 °F 86% 29.97 in 10.0 mi Calm Calm - N/A   Clear
11:54 PM 60.1 °F 55.0 °F 83% 29.97 in 10.0 mi West 4.6 mph - N/A   Clear